"2009-09-20 00:00:00",1255968,0.211,203.9,7.479,0.048,18,109.6235,23.93,24.91,16.23,0,111.3,13.1,24.76,165.9
"2009-09-20 00:00:30",1255969,0.226,196,4.306,0.049,18.02,109.6238,23.93,24.91,16.22,0,111.3,13.1,24.76,158.0
"2009-09-20 00:01:00",1255970,0.351,219.9,8.25,0.062,18.03,109.6232,23.93,24.92,16.11,0,111.3,13.1,24.76,181.9
"2009-09-20 00:01:30",1255971,0.357,219.2,5.822,0.042,18.12,109.6238,23.93,24.92,16.01,0,111.3,13.1,24.76,181.2
"2009-09-20 00:02:00",1255972,0.429,222.7,3.845,0.067,18.13,109.6247,23.93,24.93,16,0,111.3,13.1,24.77,184.7
"2009-09-20 00:02:30",1255973,0.907,226.6,5.51,0.073,18.1,109.6253,23.93,24.93,15.93,0,111.3,13.1,24.77,188.6
"2009-09-20 00:03:00",1255974,0.885,230,4.432,0.056,18.18,109.6244,23.93,24.95,15.87,0,111.3,13.1,24.77,192.0
"2009-09-20 00:03:30",1255975,0.794,243.1,4.969,0.046,18.24,109.6259,23.93,24.92,15.81,0,111.3,13.1,24.77,205.1
"2009-09-20 00:04:00",1255976,0.745,223.5,3.482,0.066,18.22,109.6264,23.93,24.93,15.79,0,111.3,13.1,24.77,185.5
"2009-09-20 00:04:30",1255977,1.08,230.3,4.313,0.157,18.28,109.6267,23.94,24.93,15.73,0,111.3,13.1,24.77,192.3
"2009-09-20 00:05:00",1255978,1.171,217.2,12.92,0.093,18.4,109.6265,23.93,24.92,15.73,0,111.3,13.1,24.77,179.2
"2009-09-20 00:05:30",1255979,1.247,206.2,4.387,0.153,18.39,109.6275,23.94,24.94,15.71,0,111.3,13.1,24.77,168.2
"2009-09-20 00:06:00",1255980,1.476,214.8,4.108,0.126,18.42,109.6281,23.94,24.93,15.89,0,111.3,13.1,24.77,176.8
"2009-09-20 00:06:30",1255981,1.506,218.2,3.86,0.088,18.45,109.6287,23.94,24.94,16.11,0,111.3,13.1,24.78,180.2
"2009-09-20 00:07:00",1255982,1.541,206.5,5.842,0.108,18.59,109.6282,23.94,24.94,16.25,0,111.3,13.1,24.77,168.5
"2009-09-20 00:07:30",1255983,1.468,201.6,3.079,0.179,18.68,109.581,23.82,24.9,16.28,0,111.3,13.1,24.65,163.6
"2009-09-20 00:08:00",1255984,0.942,204.2,5.878,0.107,18.75,109.516,23.65,24.84,16.7,0,111.3,13.1,24.49,166.2
"2009-09-20 00:08:30",1255985,0.898,233.9,12.48,0.197,18.92,109.4467,23.47,24.73,16.43,0,111.3,13.1,24.31,195.9
"2009-09-20 00:09:00",1255986,1.164,230.4,4.473,0.11,18.95,109.3785,23.3,24.61,16.09,0,111.3,13.1,24.13,192.4
"2009-09-20 00:09:30",1255987,1.39,206.5,4.938,0.126,18.99,109.3367,23.19,24.49,16.81,0,111.3,13.1,24.02,168.5
"2009-09-20 00:10:00",1255988,1.312,221.7,20.59,0.251,19.11,109.2856,23.06,24.39,16.87,0,111.3,13.1,23.89,183.7
"2009-09-20 00:10:30",1255989,1.51,238,7.434,0.137,19.16,109.236,22.93,24.27,16.6,0,111.3,13.1,23.76,200.0
"2009-09-20 00:11:00",1255990,1.328,225.3,8.15,0.171,19.19,109.1869,22.81,24.14,17.29,0,111.3,13.1,23.64,187.3
"2009-09-20 00:11:30",1255991,1.537,216.2,3.823,0.105,19.15,109.1481,22.71,24.03,18.06,0,111.3,13.1,23.54,178.2
"2009-09-20 00:12:00",1255992,1.292,218.8,3.157,0.13,19.14,109.1229,22.64,23.94,18.25,0,111.3,13.1,23.47,180.8
"2009-09-20 00:12:30",1255993,1.598,216.1,6.465,0.287,19.15,109.0954,22.57,23.85,18.33,0,111.3,13.1,23.40,178.1
"2009-09-20 00:13:00",1255994,1.939,210.9,5.489,0.099,19.1,109.0676,22.5,23.77,18.63,0,111.2,13.1,23.33,172.9
"2009-09-20 00:13:30",1255995,1.731,215.5,5.731,0.102,19.16,109.0314,22.41,23.7,18.52,0,111.3,13.1,23.24,177.5
"2009-09-20 00:14:00",1255996,1.866,204.6,5.777,0.135,19.15,109.0084,22.35,23.61,18.83,0,111.2,13.1,23.18,166.6
"2009-09-20 00:14:30",1255997,1.704,202.7,4.507,0.19,19.19,108.9949,22.31,23.54,18.88,0,111.2,13.1,23.14,164.7
"2009-09-20 00:15:00",1255998,1.308,200.2,7.489,0.17,19.24,108.9674,22.24,23.48,18.96,0,111.2,13.1,23.07,162.2
"2009-09-20 00:15:30",1255999,1.217,201.4,6.596,0.154,19.23,108.9375,22.17,23.41,19,0,111.2,13.1,22.99,163.4
"2009-09-20 00:16:00",1256000,1.172,200.7,4.973,0.16,19.31,108.9063,22.09,23.33,19.09,0,111.2,13.11,22.91,162.7
"2009-09-20 00:16:30",1256001,1.35,203.7,4.047,0.118,19.28,108.8798,22.02,23.23,19.22,0,111.2,13.11,22.85,165.7
"2009-09-20 00:17:00",1256002,0.952,203.6,5.649,0.108,19.37,108.852,21.95,23.16,19.32,0,111.2,13.11,22.77,165.6
"2009-09-20 00:17:30",1256003,1.177,202,3.47,0.168,19.31,108.8285,21.89,23.08,19.41,0,111.2,13.11,22.71,164.0
"2009-09-20 00:18:00",1256004,1.303,207,3.871,0.083,19.29,108.808,21.83,23.01,19.46,0,111.2,13.11,22.66,169.0
"2009-09-20 00:18:30",1256005,0.999,218.9,4.833,0.047,19.23,108.7844,21.77,22.94,19.58,0,111.2,13.11,22.60,180.9
"2009-09-20 00:19:00",1256006,0.969,207.5,7.772,0.106,19.18,108.7808,21.76,22.89,19.67,0,111.2,13.12,22.59,169.5
"2009-09-20 00:19:30",1256007,1.256,205.8,5.525,0.152,19.12,108.7793,21.76,22.86,19.72,0,111.2,13.12,22.59,167.8
"2009-09-20 00:20:00",1256008,1.468,198,2.375,0.105,19.18,108.7761,21.75,22.83,19.81,0,111.2,13.12,22.58,160.0
"2009-09-20 00:20:30",1256009,1.537,191.7,2.033,0.078,19.11,108.7709,21.74,22.81,19.71,0,111.2,13.12,22.57,153.7
"2009-09-20 00:21:00",1256010,1.442,195.6,2.67,0.056,19.14,108.7656,21.72,22.79,19.78,0,111.2,13.12,22.55,157.6
"2009-09-20 00:21:30",1256011,1.335,197.1,2.658,0.048,18.96,108.7608,21.71,22.77,19.89,0,111.2,13.12,22.54,159.1
"2009-09-20 00:22:00",1256012,1.285,195.4,2.771,0.069,18.89,108.7572,21.7,22.76,19.84,0,111.2,13.12,22.53,157.4
"2009-09-20 00:22:30",1256013,1.364,197.4,1.708,0.045,19.01,108.7572,21.7,22.74,19.91,0,111.2,13.12,22.53,159.4
"2009-09-20 00:23:00",1256014,1.528,195.3,2.96,0.054,19.09,108.7538,21.69,22.72,20.15,0,111.2,13.12,22.52,157.3
"2009-09-20 00:23:30",1256015,1.636,189.1,2.32,0.087,19.16,108.7381,21.65,22.7,20.16,0,111.2,13.12,22.48,151.1
"2009-09-20 00:24:00",1256016,1.674,192.1,2.616,0.064,19.16,108.7266,21.62,22.69,20.3,0,111.2,13.12,22.45,154.1
"2009-09-20 00:24:30",1256017,1.619,192.4,1.555,0.039,19.17,108.7254,21.62,22.67,20.4,0,111.1,13.12,22.45,154.4
"2009-09-20 00:25:00",1256018,1.628,194.7,2.412,0.047,19.18,108.7097,21.58,22.62,20.4,0,111.1,13.12,22.41,156.7
"2009-09-20 00:25:30",1256019,1.664,195.9,1.843,0.045,19.17,108.698,21.55,22.6,20.42,0,111.1,13.12,22.38,157.9
"2009-09-20 00:26:00",1256020,1.621,200.3,3.961,0.064,19.14,108.7006,21.56,22.57,20.41,0,111.1,13.12,22.38,162.3
"2009-09-20 00:26:30",1256021,1.634,204.7,7.673,0.122,19.13,108.679,21.5,22.54,20.28,0,111.1,13.12,22.33,166.7
"2009-09-20 00:27:00",1256022,1.958,199.1,8.82,0.115,19.15,108.679,21.5,22.52,20.26,0,111.1,13.12,22.33,161.1
"2009-09-20 00:27:30",1256023,1.677,194.9,4.253,0.172,19.19,108.6826,21.51,22.49,20.06,0,111.1,13.12,22.34,156.9
"2009-09-20 00:28:00",1256024,1.395,190.1,2.053,0.1,19.11,108.6836,21.51,22.49,19.96,0,111.1,13.12,22.34,152.1
"2009-09-20 00:28:30",1256025,1.206,195.5,1.862,0.034,19.09,108.6836,21.51,22.49,19.97,0,111.1,13.12,22.34,157.5
"2009-09-20 00:29:00",1256026,1.292,189.8,1.802,0.159,19.16,108.6851,21.52,22.48,19.97,0,111.1,13.12,22.34,151.8
"2009-09-20 00:29:30",1256027,1.464,188.1,2.624,0.065,19.11,108.6888,21.53,22.48,19.97,0,111.1,13.12,22.35,150.1
"2009-09-20 00:30:00",1256028,1.679,174.9,3.23,0.273,19.12,108.6909,21.53,22.48,19.96,0,111.1,13.12,22.36,136.9
"2009-09-20 00:30:30",1256029,1.846,168.7,3.169,0.191,19.11,108.6927,21.54,22.49,19.9,0,111.1,13.12,22.36,130.7
"2009-09-20 00:31:00",1256030,1.557,164.5,2.796,0.092,19.16,108.6927,21.54,22.48,19.86,0,111.1,13.12,22.36,126.5
"2009-09-20 00:31:30",1256031,1.411,159.7,2.159,0.05,19.13,108.6927,21.54,22.5,19.85,0,111.1,13.12,22.36,121.7
"2009-09-20 00:32:00",1256032,1.509,160.5,3.872,0.131,19.13,108.6916,21.53,22.5,19.77,0,111.1,13.13,22.36,122.5
"2009-09-20 00:32:30",1256033,1.554,161.6,4.709,0.088,19.15,108.6888,21.53,22.52,19.8,0,111.1,13.13,22.35,123.6
"2009-09-20 00:33:00",1256034,1.594,157.3,3.074,0.065,19.16,108.6851,21.52,22.5,19.81,0,111.1,13.13,22.34,119.3
"2009-09-20 00:33:30",1256035,1.535,161.1,3.369,0.101,19.21,108.684,21.51,22.51,19.83,0,111.1,13.13,22.34,123.1
"2009-09-20 00:34:00",1256036,1.556,170.3,2.574,0.132,19.22,108.6798,21.5,22.51,19.87,0,111.1,13.13,22.33,132.3
"2009-09-20 00:34:30",1256037,1.68,167.4,3.684,0.113,19.25,108.6767,21.5,22.51,19.98,0,111.1,13.13,22.32,129.4
"2009-09-20 00:35:00",1256038,1.506,162.3,3.897,0.079,19.25,108.6718,21.48,22.52,20.06,0,111.1,13.13,22.31,124.3
"2009-09-20 00:35:30",1256039,1.536,170.6,3.944,0.103,19.24,108.6752,21.49,22.5,20.05,0,111.1,13.13,22.32,132.6
"2009-09-20 00:36:00",1256040,1.581,173.7,3.522,0.093,19.25,108.6794,21.5,22.51,20.01,0,111.1,13.13,22.33,135.7
"2009-09-20 00:36:30",1256041,1.547,176.7,2.193,0.101,19.23,108.6802,21.51,22.53,19.91,0,111.1,13.13,22.33,138.7
"2009-09-20 00:37:00",1256042,1.466,175.6,5.351,0.191,19.18,108.6807,21.51,22.53,19.91,0,111.1,13.13,22.33,137.6
"2009-09-20 00:37:30",1256043,1.547,169.6,3.391,0.158,19.26,108.6856,21.52,22.51,19.94,0,111,13.13,22.35,131.6
"2009-09-20 00:38:00",1256044,1.219,172.4,6.188,0.128,19.23,108.6865,21.52,22.51,19.93,0,111,13.14,22.35,134.4
"2009-09-20 00:38:30",1256045,1.187,185.3,2.652,0.096,19.25,108.6865,21.52,22.5,19.99,0,111,13.14,22.35,147.3
"2009-09-20 00:39:00",1256046,1.123,181.6,2.908,0.058,19.38,108.6821,21.51,22.5,20.11,0,111,13.14,22.34,143.6
"2009-09-20 00:39:30",1256047,1.16,178.1,2.601,0.04,19.4,108.6673,21.47,22.49,20.13,0,111,13.14,22.30,140.1
"2009-09-20 00:40:00",1256048,1.195,174.9,2.914,0.073,19.33,108.6637,21.46,22.48,20.1,0,111,13.14,22.29,136.9
"2009-09-20 00:40:30",1256049,1.188,183,1.62,0.047,19.35,108.6613,21.46,22.46,20.27,0,111,13.14,22.28,145.0
"2009-09-20 00:41:00",1256050,1.118,184.4,1.692,0.056,19.37,108.6613,21.46,22.46,20.38,0,111,13.14,22.28,146.4
"2009-09-20 00:41:30",1256051,1.34,183.7,1.919,0.065,19.19,108.6614,21.46,22.44,20.43,0,111,13.14,22.28,145.7
"2009-09-20 00:42:00",1256052,1.409,190,3.459,0.053,19.2,108.6398,21.4,22.41,20.48,0,111,13.14,22.23,152.0
"2009-09-20 00:42:30",1256053,1.415,191.1,2.91,0.051,19.17,108.6282,21.37,22.39,20.65,0,111,13.14,22.20,153.1
"2009-09-20 00:43:00",1256054,1.441,190.4,1.027,0.044,19.22,108.6266,21.37,22.37,20.8,0,111,13.14,22.19,152.4
"2009-09-20 00:43:30",1256055,1.455,186,1.912,0.058,19.29,108.6069,21.32,22.35,20.73,0,111,13.14,22.14,148.0
"2009-09-20 00:44:00",1256056,1.588,183.7,3.515,0.077,19.4,108.5971,21.29,22.32,20.76,0,111,13.14,22.12,145.7
"2009-09-20 00:44:30",1256057,1.572,182,2.104,0.076,19.4,108.5945,21.29,22.29,20.8,0,111,13.14,22.11,144.0
"2009-09-20 00:45:00",1256058,1.599,187.3,1.93,0.049,19.41,108.5943,21.28,22.29,20.81,0,111,13.14,22.11,149.3
"2009-09-20 00:45:30",1256059,1.595,186.7,3.27,0.088,19.42,108.5926,21.28,22.27,20.78,0,111,13.14,22.11,148.7
"2009-09-20 00:46:00",1256060,1.546,188.9,1.176,0.048,19.44,108.5839,21.26,22.27,20.79,0,111,13.14,22.08,150.9
"2009-09-20 00:46:30",1256061,1.356,180.8,3.259,0.1,19.38,108.5735,21.23,22.25,20.72,0,111,13.14,22.06,142.8
"2009-09-20 00:47:00",1256062,1.402,180.8,1.898,0.077,19.35,108.5727,21.23,22.24,20.88,0,111,13.14,22.06,142.8
"2009-09-20 00:47:30",1256063,1.482,176.1,2.151,0.099,19.48,108.58,21.25,22.23,20.84,0,111,13.14,22.07,138.1
"2009-09-20 00:48:00",1256064,1.523,175.3,1.205,0.052,19.57,108.5854,21.26,22.21,20.81,0,111,13.14,22.09,137.3
"2009-09-20 00:48:30",1256065,1.646,173.4,1.846,0.082,19.63,108.5725,21.23,22.19,20.69,0,111,13.14,22.05,135.4
"2009-09-20 00:49:00",1256066,1.676,175.8,2.171,0.083,19.66,108.5616,21.2,22.17,20.37,0,111,13.15,22.03,137.8
"2009-09-20 00:49:30",1256067,1.585,173,2.727,0.056,19.61,108.5558,21.19,22.16,20.59,0,111,13.15,22.01,135.0
"2009-09-20 00:50:00",1256068,1.663,170.9,2.241,0.107,19.67,108.5583,21.19,22.15,20.63,0,111,13.15,22.02,132.9
"2009-09-20 00:50:30",1256069,1.615,168,2.163,0.072,19.65,108.5573,21.19,22.13,20.66,0,111,13.15,22.02,130.0
"2009-09-20 00:51:00",1256070,1.691,167.1,2.11,0.079,19.63,108.5403,21.15,22.12,20.61,0,111,13.15,21.97,129.1
"2009-09-20 00:51:30",1256071,1.848,163.7,2.977,0.075,19.57,108.5306,21.12,22.12,20.56,0,111,13.15,21.95,125.7
"2009-09-20 00:52:00",1256072,1.87,156.4,3.476,0.072,19.61,108.53,21.12,22.09,20.41,0,111,13.15,21.95,118.4
"2009-09-20 00:52:30",1256073,1.787,148,2.037,0.083,19.75,108.53,21.12,22.08,20.43,0,111,13.15,21.95,110.0
"2009-09-20 00:53:00",1256074,1.725,146.7,1.713,0.039,19.78,108.5266,21.11,22.08,20.45,0,111,13.16,21.94,108.7
"2009-09-20 00:53:30",1256075,1.551,144.2,3.575,0.104,19.61,108.5087,21.06,22.05,20.49,0,110.9,13.16,21.89,106.2
"2009-09-20 00:54:00",1256076,1.46,141.8,5.947,0.134,19.68,108.5006,21.04,22.06,20.49,0,111,13.16,21.87,103.8
"2009-09-20 00:54:30",1256077,1.505,139.6,3.034,0.103,19.61,108.499,21.04,22.03,20.53,0,110.9,13.16,21.87,101.6
"2009-09-20 00:55:00",1256078,1.36,147.6,4.031,0.067,19.57,108.4967,21.03,22.03,20.59,0,110.9,13.16,21.86,109.6
"2009-09-20 00:55:30",1256079,1.24,142.7,2.995,0.043,19.74,108.4923,21.02,22.01,20.54,0,110.9,13.16,21.85,104.7
"2009-09-20 00:56:00",1256080,1.289,144.9,3.118,0.075,19.67,108.4781,20.99,22,20.55,0,110.9,13.16,21.81,106.9
"2009-09-20 00:56:30",1256081,1.408,146,2.096,0.036,19.5,108.4726,20.97,22,20.56,0,110.9,13.16,21.80,108.0
"2009-09-20 00:57:00",1256082,1.399,145.8,1.511,0.025,19.5,108.4802,20.99,21.98,20.55,0,110.9,13.16,21.82,107.8
"2009-09-20 00:57:30",1256083,1.464,144.1,1.011,0.044,19.46,108.4794,20.99,21.96,20.52,0,110.9,13.16,21.81,106.1
"2009-09-20 00:58:00",1256084,1.422,143.7,1.32,0.028,19.51,108.4646,20.95,21.95,20.52,0,110.9,13.16,21.78,105.7
"2009-09-20 00:58:30",1256085,1.402,143.5,0.884,0.025,19.55,108.4568,20.93,21.94,20.52,0,110.9,13.16,21.76,105.5
"2009-09-20 00:59:00",1256086,1.28,141.9,2.238,0.072,19.72,108.4563,20.93,21.92,20.58,0,110.9,13.16,21.76,103.9
"2009-09-20 00:59:30",1256087,1.191,136.4,1.078,0.025,19.79,108.4576,20.93,21.92,20.61,0,110.9,13.16,21.76,98.4
"2009-09-20 01:00:00",1256088,1.155,133.9,1.985,0.036,19.69,108.4423,20.89,21.9,20.65,0,110.9,13.16,21.72,95.9
"2009-09-20 01:00:30",1256089,1.153,132.4,1.021,0.014,19.62,108.4325,20.87,21.89,20.7,0,110.9,13.16,21.69,94.4
"2009-09-20 01:01:00",1256090,1.064,129.9,0.855,0.051,19.47,108.4317,20.87,21.87,20.78,0,110.9,13.16,21.69,91.9
"2009-09-20 01:01:30",1256091,1.111,130.1,1.36,0.036,19.49,108.4255,20.85,21.86,20.79,0,110.9,13.16,21.68,92.1
"2009-09-20 01:02:00",1256092,1.116,124.5,2.248,0.057,19.59,108.4047,20.8,21.85,20.77,0,110.9,13.16,21.62,86.5
"2009-09-20 01:02:30",1256093,1.027,120.3,2.871,0.038,19.74,108.398,20.78,21.83,20.78,0,110.9,13.16,21.61,82.3
"2009-09-20 01:03:00",1256094,0.981,117.1,3.102,0.056,19.78,108.398,20.78,21.81,20.82,0,110.9,13.16,21.61,79.1
"2009-09-20 01:03:30",1256095,1.033,115.2,2.224,0.034,19.75,108.382,20.74,21.8,20.87,0,110.9,13.16,21.56,77.2
"2009-09-20 01:04:00",1256096,1.074,115.6,1.491,0.035,19.79,108.3662,20.7,21.78,20.91,0,110.9,13.16,21.52,77.6
"2009-09-20 01:04:30",1256097,1.135,116.8,2.776,0.083,19.79,108.3643,20.69,21.75,21,0,110.9,13.16,21.52,78.8
"2009-09-20 01:05:00",1256098,1.115,118,1.332,0.047,19.77,108.3618,20.69,21.75,21.08,0,110.9,13.17,21.51,80.0
"2009-09-20 01:05:30",1256099,1.018,119.9,2.517,0.082,19.77,108.3399,20.63,21.71,21.18,0,110.9,13.17,21.46,81.9
"2009-09-20 01:06:00",1256100,0.828,119.1,2.387,0.037,19.78,108.3351,20.62,21.7,21.24,0,110.9,13.17,21.44,81.1
"2009-09-20 01:06:30",1256101,1.029,116,1.699,0.084,19.76,108.3442,20.64,21.67,21.28,0,110.9,13.17,21.47,78.0
"2009-09-20 01:07:00",1256102,1.069,117,2.63,0.055,19.76,108.3426,20.64,21.67,21.5,0,110.9,13.18,21.46,79.0
"2009-09-20 01:07:30",1256103,1.073,110.2,2.414,0.077,19.74,108.3277,20.6,21.65,21.61,0,110.9,13.18,21.42,72.2
"2009-09-20 01:08:00",1256104,1.074,106,2.474,0.057,19.64,108.3239,20.59,21.63,21.62,0,110.9,13.18,21.41,68.0
"2009-09-20 01:08:30",1256105,0.992,104.1,0.733,0.04,19.57,108.3248,20.59,21.62,21.71,0,110.9,13.18,21.42,66.1
"2009-09-20 01:09:00",1256106,0.961,103.1,1.659,0.07,19.62,108.3092,20.55,21.61,21.76,0,110.9,13.18,21.38,65.1
"2009-09-20 01:09:30",1256107,0.955,105.5,1.165,0.049,19.63,108.2991,20.53,21.58,21.78,0,110.8,13.18,21.35,67.5
"2009-09-20 01:10:00",1256108,0.878,108.1,3.101,0.063,19.64,108.2981,20.52,21.57,21.8,0,110.8,13.18,21.35,70.1
"2009-09-20 01:10:30",1256109,0.772,116.7,3.357,0.029,19.72,108.2976,20.52,21.54,21.86,0,110.8,13.18,21.35,78.7
"2009-09-20 01:11:00",1256110,0.704,118.6,4.013,0.07,19.76,108.2751,20.47,21.51,21.94,0,110.9,13.18,21.29,80.6
"2009-09-20 01:11:30",1256111,0.693,116.2,1.246,0.058,19.64,108.2659,20.44,21.51,22.06,0,110.8,13.18,21.27,78.2
"2009-09-20 01:12:00",1256112,0.71,117.9,7.322,0.078,19.61,108.2659,20.44,21.49,22.14,0,110.8,13.18,21.27,79.9
"2009-09-20 01:12:30",1256113,0.482,92.2,12.61,0.133,19.6,108.265,20.44,21.46,22.45,0,110.8,13.18,21.26,54.2
"2009-09-20 01:13:00",1256114,0.629,84.5,16.35,0.121,19.62,108.247,20.39,21.45,22.58,0,110.8,13.19,21.22,46.5
"2009-09-20 01:13:30",1256115,0.689,80.4,9.23,0.108,19.6,108.2335,20.36,21.43,22.64,0,110.8,13.19,21.18,42.4
"2009-09-20 01:14:00",1256116,0.25,86.9,32.42,0.158,19.64,108.2321,20.36,21.41,22.93,0,110.8,13.19,21.18,48.9
"2009-09-20 01:14:30",1256117,0.296,342.5,29.9,0.123,19.56,108.2313,20.35,21.4,23.37,0,110.8,13.19,21.18,304.5
"2009-09-20 01:15:00",1256118,0.197,34.32,18.41,0.17,19.62,108.2116,20.3,21.39,23.63,0,110.8,13.19,21.13,356.3
"2009-09-20 01:15:30",1256119,0.205,4.617,19.83,0.181,19.62,108.2004,20.27,21.35,23.5,0,110.8,13.19,21.10,326.6
"2009-09-20 01:16:00",1256120,0.715,338.9,9.98,0.133,19.65,108.2005,20.27,21.35,23.86,0,110.8,13.19,21.10,300.9
"2009-09-20 01:16:30",1256121,0.761,322,7.694,0.138,19.64,108.1984,20.27,21.34,24.15,0,110.8,13.19,21.09,284.0
"2009-09-20 01:17:00",1256122,0.466,317.3,12.1,0.069,19.55,108.1738,20.21,21.31,24.46,0,110.8,13.19,21.03,279.3
"2009-09-20 01:17:30",1256123,0.241,317.5,12.07,0.167,19.68,108.1738,20.21,21.3,24.22,0,110.8,13.19,21.03,279.5
"2009-09-20 01:18:00",1256124,0.141,331.5,23.36,0.131,19.67,108.176,20.21,21.28,23.92,0,110.8,13.19,21.03,293.5
"2009-09-20 01:18:30",1256125,0.214,28.19,12.86,0.094,19.73,108.1632,20.18,21.26,23.71,0,110.8,13.19,21.00,350.2
"2009-09-20 01:19:00",1256126,0.07,301.9,38.18,0.109,19.73,108.1608,20.17,21.24,23.56,0,110.8,13.19,20.99,263.9
"2009-09-20 01:19:30",1256127,0.111,11.28,25.03,0.114,19.7,108.1583,20.17,21.22,23.56,0,110.8,13.19,20.99,333.3
"2009-09-20 01:20:00",1256128,-0.003,52.09,28.3,0.096,19.74,108.1551,20.16,21.2,23.54,0,110.8,13.19,20.98,14.1
"2009-09-20 01:20:30",1256129,0.353,97.5,8.34,0.076,19.76,108.135,20.11,21.19,23.43,0,110.8,13.19,20.93,59.5
"2009-09-20 01:21:00",1256130,0.342,76.97,17.22,0.052,19.73,108.133,20.1,21.17,23.4,0,110.8,13.19,20.92,39.0
"2009-09-20 01:21:30",1256131,0.435,48.64,5.92,0.068,19.62,108.1331,20.1,21.13,23.67,0,110.8,13.19,20.92,10.6
"2009-09-20 01:22:00",1256132,0.354,43.49,20.68,0.094,19.67,108.1201,20.07,21.12,24.42,0,110.8,13.19,20.89,5.5
"2009-09-20 01:22:30",1256133,0.099,15.78,20.6,0.11,19.72,108.1016,20.02,21.11,24.6,0,110.8,13.19,20.84,337.8
"2009-09-20 01:23:00",1256134,0.176,39.93,10.55,0.139,19.76,108.0999,20.02,21.07,24.57,0,110.8,13.2,20.84,1.9
"2009-09-20 01:23:30",1256135,0.676,41.76,3.723,0.162,19.67,108.0912,19.99,21.05,24.5,0,110.8,13.2,20.82,3.8
"2009-09-20 01:24:00",1256136,0.434,33.36,5.163,0.134,19.56,108.0701,19.94,21.02,24.74,0,110.8,13.2,20.76,355.4
"2009-09-20 01:24:30",1256137,0.509,41.38,4.846,0.067,19.61,108.0661,19.93,21.02,24.82,0,110.8,13.2,20.75,3.4
"2009-09-20 01:25:00",1256138,0.467,45.38,3.714,0.042,19.61,108.0645,19.93,20.99,24.57,0,110.8,13.2,20.75,7.4
"2009-09-20 01:25:30",1256139,0.608,54.17,7.79,0.085,19.67,108.0479,19.88,20.96,24.44,0,110.8,13.2,20.70,16.2
"2009-09-20 01:26:00",1256140,0.685,52.08,3.252,0.111,19.63,108.0324,19.84,20.95,24.25,0,110.8,13.2,20.66,14.1
"2009-09-20 01:26:30",1256141,0.621,42.3,5.779,0.073,19.62,108.0324,19.84,20.92,24.33,0,110.8,13.2,20.66,4.3
"2009-09-20 01:27:00",1256142,0.241,21.08,13.6,0.163,19.69,108.0158,19.8,20.91,24.4,0,110.8,13.21,20.62,343.1
"2009-09-20 01:27:30",1256143,0.117,354.9,23.87,0.11,19.66,107.9998,19.76,20.88,24.42,0,110.8,13.21,20.58,316.9
"2009-09-20 01:28:00",1256144,0.212,358.8,21.43,0.072,19.63,107.9996,19.76,20.87,24.64,0,110.8,13.21,20.58,320.8
"2009-09-20 01:28:30",1256145,0.27,17.04,19.12,0.092,19.6,108.0014,19.76,20.82,24.67,0,110.8,13.21,20.58,339.0
"2009-09-20 01:29:00",1256146,0.511,39.17,8.7,0.121,19.45,107.9898,19.73,20.81,25.12,0,110.8,13.21,20.55,1.2
"2009-09-20 01:29:30",1256147,0.532,28.77,17.39,0.186,19.48,107.9869,19.73,20.8,25.29,0,110.8,13.21,20.55,350.8
"2009-09-20 01:30:00",1256148,0.769,15.38,11.28,0.291,19.49,107.9886,19.73,20.78,25.39,0,110.8,13.21,20.55,337.4
"2009-09-20 01:30:30",1256149,0.792,11.96,6.312,0.238,19.53,107.9902,19.73,20.76,25.65,0,110.8,13.21,20.56,334.0
"2009-09-20 01:31:00",1256150,0.865,16.58,7.693,0.21,19.49,107.9703,19.68,20.75,25.77,0,110.8,13.21,20.50,338.6
"2009-09-20 01:31:30",1256151,1.079,22.35,7.113,0.109,19.5,107.9585,19.65,20.72,25.84,0,110.8,13.21,20.47,344.4
"2009-09-20 01:32:00",1256152,0.882,28.18,3.916,0.132,19.53,107.9585,19.65,20.7,25.84,0,110.8,13.21,20.47,350.2
"2009-09-20 01:32:30",1256153,0.737,20.98,5.572,0.124,19.62,107.9511,19.63,20.68,26.04,0,110.7,13.21,20.45,343.0
"2009-09-20 01:33:00",1256154,0.708,17.3,3.84,0.108,19.65,107.9364,19.6,20.67,25.77,0,110.8,13.21,20.42,339.3
"2009-09-20 01:33:30",1256155,0.666,22.02,5.839,0.113,19.7,107.932,19.59,20.65,25.56,0,110.8,13.21,20.41,344.0
"2009-09-20 01:34:00",1256156,0.615,21.54,9.33,0.156,19.57,107.9335,19.59,20.64,25.71,0,110.8,13.21,20.41,343.5
"2009-09-20 01:34:30",1256157,0.427,12.39,10.37,0.133,19.53,107.9243,19.57,20.61,25.89,0,110.7,13.21,20.39,334.4
"2009-09-20 01:35:00",1256158,0.742,22.57,6.393,0.184,19.61,107.9051,19.52,20.59,25.95,0,110.7,13.21,20.34,344.6
"2009-09-20 01:35:30",1256159,0.9,29.13,6.57,0.132,19.55,107.9001,19.5,20.57,25.93,0,110.7,13.21,20.32,351.1
"2009-09-20 01:36:00",1256160,1.125,27.5,5.358,0.082,19.47,107.9001,19.5,20.55,26.08,0,110.7,13.21,20.32,349.5
"2009-09-20 01:36:30",1256161,0.856,24.99,7.782,0.101,19.61,107.8922,19.48,20.54,26.14,0,110.7,13.21,20.30,347.0
"2009-09-20 01:37:00",1256162,0.816,27.52,6.679,0.063,19.67,107.8742,19.44,20.5,26.16,0,110.7,13.21,20.26,349.5
"2009-09-20 01:37:30",1256163,0.792,18.35,2.752,0.062,19.61,107.8663,19.42,20.51,26.15,0,110.7,13.21,20.24,340.4
"2009-09-20 01:38:00",1256164,0.851,37.9,5.041,0.093,19.76,107.8663,19.42,20.48,26.13,0,110.7,13.21,20.24,359.9
"2009-09-20 01:38:30",1256165,0.859,40.03,2.087,0.061,19.76,107.8615,19.4,20.47,26.07,0,110.7,13.22,20.22,2.0
"2009-09-20 01:39:00",1256166,0.813,33.07,2.876,0.134,19.67,107.8399,19.35,20.46,26.01,0,110.7,13.22,20.17,355.1
"2009-09-20 01:39:30",1256167,0.821,24.9,9.15,0.211,19.55,107.8325,19.33,20.43,26.06,0,110.7,13.22,20.15,346.9
"2009-09-20 01:40:00",1256168,1.091,29.59,4.33,0.149,19.43,107.8325,19.33,20.41,26.08,0,110.7,13.22,20.15,351.6
"2009-09-20 01:40:30",1256169,1.154,36.02,3.351,0.142,19.38,107.8325,19.33,20.4,26.05,0,110.7,13.22,20.15,358.0
"2009-09-20 01:41:00",1256170,1.018,22.46,4.234,0.142,19.43,107.8126,19.28,20.38,26.13,0,110.7,13.22,20.10,344.5
"2009-09-20 01:41:30",1256171,0.951,20.85,7.498,0.194,19.5,107.8002,19.25,20.36,26.22,0,110.7,13.22,20.07,342.9
"2009-09-20 01:42:00",1256172,0.87,18.77,4.361,0.25,19.49,107.8,19.25,20.35,26.28,0,110.7,13.22,20.07,340.8
"2009-09-20 01:42:30",1256173,0.324,8.87,13.67,0.169,19.53,107.7997,19.25,20.34,26.28,0,110.7,13.22,20.07,330.9
"2009-09-20 01:43:00",1256174,0.758,0.376,9.26,0.187,19.56,107.7986,19.24,20.33,26.27,0,110.7,13.22,20.06,322.4
"2009-09-20 01:43:30",1256175,1.007,10.72,6.317,0.09,19.6,107.7792,19.19,20.31,26.29,0,110.7,13.22,20.01,332.7
"2009-09-20 01:44:00",1256176,0.871,21.13,7.626,0.129,19.61,107.7723,19.18,20.28,26.3,0,110.7,13.22,19.99,343.1
"2009-09-20 01:44:30",1256177,0.794,23.86,6.308,0.117,19.68,107.7708,19.17,20.26,26.33,0,110.7,13.22,19.99,345.9
"2009-09-20 01:45:00",1256178,0.872,26.49,6.522,0.141,19.63,107.7711,19.17,20.26,26.36,0,110.7,13.23,19.99,348.5
"2009-09-20 01:45:30",1256179,0.932,28.36,4.002,0.114,19.57,107.7723,19.18,20.24,26.34,0,110.7,13.23,19.99,350.4
"2009-09-20 01:46:00",1256180,1.202,28.37,3.364,0.185,19.49,107.771,19.17,20.23,26.36,0,110.7,13.23,19.99,350.4
"2009-09-20 01:46:30",1256181,1.347,32.56,2.095,0.124,19.63,107.7526,19.13,20.21,26.4,0,110.7,13.23,19.94,354.6
"2009-09-20 01:47:00",1256182,0.989,29.61,3.233,0.149,19.5,107.7419,19.1,20.22,26.47,0,110.7,13.23,19.92,351.6
"2009-09-20 01:47:30",1256183,1.037,30.44,5.715,0.097,19.45,107.7397,19.09,20.2,26.55,0,110.7,13.23,19.91,352.4